Voltar ao catálogo

QIANFAN-30

AtivoComunicaçõesPO
NORAD 61563·PAYLOAD·🇨🇳 China

Lançado Oct 15, 2024 de Taiyuan Satellite Launch Center

Loading…

Próximas Passagens (próximas 24 horas)

TLE

AtualizadoSource: Space-Track

Época: Sep 14, 2026, 13:46 UTC

1 61563U 24185M   26257.57411627  .00000124  00000-0  17628-3 0  9990
2 61563  88.9815  52.4287 0006471 331.1129  28.9663 13.50074803105289

Acompanhe QIANFAN-30 em tempo real com AllMySat

Download on the App Store